BOV794 SLVR-SGAS

Flight info

Callsign BOV794
Flight time 2h 44m
Altitude 25000
Route TOMUR UM415 XOLAT UL793 KIMAL UN420 VUPIR VUPIR
Aircraft E110/L-SDFGHRY/S

Departure

Time 2026-04-21 20:26
Airport Viru Viru International Airport (SLVR)

Arrival

Time 2026-04-21 23:10
Airport Silvio Pettirossi International Airport (SGAS)
Time Latitude Longitude Altitude Speed Heading
2026-04-21 20:08 -17.64627 -63.13873 1224 ft 0 kts 48°
2026-04-21 20:20 -17.64626 -63.13873 1224 ft 1 kts 51°
2026-04-21 20:20 -17.64631 -63.13865 1224 ft 3 kts 191°
2026-04-21 20:20 -17.64645 -63.13894 1224 ft 7 kts 245°
2026-04-21 20:20 -17.64686 -63.13921 1224 ft 10 kts 159°
2026-04-21 20:21 -17.64756 -63.13877 1224 ft 14 kts 149°
2026-04-21 20:21 -17.64845 -63.13823 1225 ft 16 kts 144°
2026-04-21 20:21 -17.64864 -63.13717 1225 ft 18 kts 59°
2026-04-21 20:21 -17.64794 -63.13601 1225 ft 19 kts 77°
2026-04-21 20:22 -17.64883 -63.13502 1225 ft 21 kts 148°
2026-04-21 20:22 -17.65152 -63.13321 1226 ft 25 kts 147°
2026-04-21 20:22 -17.65299 -63.13221 1226 ft 26 kts 148°
2026-04-21 20:23 -17.65454 -63.13118 1227 ft 26 kts 146°
2026-04-21 20:23 -17.65610 -63.13014 1227 ft 27 kts 146°
2026-04-21 20:23 -17.65768 -63.12906 1228 ft 27 kts 147°
2026-04-21 20:23 -17.65870 -63.12809 1228 ft 15 kts 100°
2026-04-21 20:24 -17.65830 -63.12710 1229 ft 15 kts 54°
2026-04-21 20:24 -17.65761 -63.12681 1229 ft 0 kts 328°
2026-04-21 20:25 -17.65728 -63.12703 1230 ft 28 kts 327°
2026-04-21 20:25 -17.65349 -63.12953 1228 ft 98 kts 327°
2026-04-21 20:25 -17.64621 -63.13438 1246 ft 145 kts 328°
2026-04-21 20:25 -17.63712 -63.14053 1385 ft 165 kts 327°
2026-04-21 20:26 -17.62752 -63.14779 1762 ft 174 kts 325°
2026-04-21 20:26 -17.61728 -63.15488 2116 ft 177 kts 328°
2026-04-21 20:26 -17.60687 -63.16201 2475 ft 180 kts 327°
2026-04-21 20:26 -17.59753 -63.17065 2853 ft 181 kts 303°
2026-04-21 20:27 -17.59378 -63.18319 3228 ft 185 kts 273°
2026-04-21 20:27 -17.59694 -63.19615 3597 ft 187 kts 240°
2026-04-21 20:27 -17.60628 -63.20555 3973 ft 192 kts 211°
2026-04-21 20:27 -17.61934 -63.20874 4353 ft 197 kts 180°
2026-04-21 20:28 -17.63238 -63.20460 4734 ft 199 kts 149°
2026-04-21 20:28 -17.64165 -63.19434 5100 ft 198 kts 118°
2026-04-21 20:28 -17.64485 -63.18056 5478 ft 195 kts 87°
2026-04-21 20:28 -17.64585 -63.16656 5874 ft 193 kts 109°
2026-04-21 20:29 -17.65333 -63.15507 6273 ft 192 kts 136°
2026-04-21 20:29 -17.66228 -63.14459 6569 ft 194 kts 125°
2026-04-21 20:29 -17.66702 -63.13659 6765 ft 195 kts 119°
2026-04-21 20:29 -17.67592 -63.11989 7130 ft 199 kts 119°
2026-04-21 20:30 -17.68055 -63.11149 7283 ft 202 kts 120°
2026-04-21 20:30 -17.68766 -63.09867 7523 ft 205 kts 120°
2026-04-21 20:30 -17.69489 -63.08565 7763 ft 208 kts 120°
2026-04-21 20:30 -17.70220 -63.07240 8001 ft 210 kts 120°
2026-04-21 20:31 -17.70952 -63.05913 8244 ft 210 kts 120°
2026-04-21 20:31 -17.71686 -63.04583 8488 ft 211 kts 120°
2026-04-21 20:31 -17.72420 -63.03255 8735 ft 211 kts 120°
2026-04-21 20:31 -17.73154 -63.01926 8981 ft 211 kts 120°
2026-04-21 20:32 -17.73888 -63.00597 9231 ft 211 kts 120°
2026-04-21 20:32 -17.74620 -62.99270 9484 ft 210 kts 120°
2026-04-21 20:32 -17.75350 -62.97950 9732 ft 209 kts 120°
2026-04-21 20:32 -17.76079 -62.96628 9961 ft 209 kts 120°
2026-04-21 20:33 -17.76801 -62.95320 10187 ft 208 kts 120°
2026-04-21 20:33 -17.77520 -62.94013 10418 ft 207 kts 120°
2026-04-21 20:33 -17.78243 -62.92701 10617 ft 208 kts 120°
2026-04-21 20:33 -17.78964 -62.91396 10800 ft 210 kts 120°
2026-04-21 20:34 -17.79696 -62.90069 10987 ft 210 kts 120°
2026-04-21 20:34 -17.80428 -62.88740 11173 ft 210 kts 119°
2026-04-21 20:34 -17.81156 -62.87417 11350 ft 210 kts 120°
2026-04-21 20:34 -17.81893 -62.86080 11490 ft 212 kts 120°
2026-04-21 20:35 -17.82635 -62.84734 11633 ft 213 kts 120°
2026-04-21 20:35 -17.83380 -62.83381 11776 ft 214 kts 120°
2026-04-21 20:35 -17.84124 -62.82031 11912 ft 214 kts 120°
2026-04-21 20:35 -17.84867 -62.80680 12064 ft 214 kts 120°
2026-04-21 20:36 -17.85611 -62.79328 12206 ft 214 kts 120°
2026-04-21 20:36 -17.86353 -62.77980 12352 ft 213 kts 120°
2026-04-21 20:36 -17.87094 -62.76633 12499 ft 213 kts 120°
2026-04-21 20:36 -17.87835 -62.75285 12646 ft 213 kts 120°
2026-04-21 20:37 -17.88574 -62.73941 12792 ft 212 kts 120°
2026-04-21 20:37 -17.89313 -62.72597 12943 ft 212 kts 120°
2026-04-21 20:37 -17.90039 -62.71278 13093 ft 211 kts 120°
2026-04-21 20:37 -17.90774 -62.69940 13242 ft 211 kts 120°
2026-04-21 20:38 -17.91508 -62.68604 13396 ft 211 kts 120°
2026-04-21 20:38 -17.92238 -62.67274 13546 ft 211 kts 120°
2026-04-21 20:38 -17.92971 -62.65939 13695 ft 210 kts 120°
2026-04-21 20:38 -17.93699 -62.64614 13829 ft 209 kts 120°
2026-04-21 20:39 -17.94392 -62.63271 13962 ft 208 kts 110°
2026-04-21 20:39 -17.94809 -62.61816 14095 ft 208 kts 104°
2026-04-21 20:39 -17.95182 -62.60355 14230 ft 207 kts 104°
2026-04-21 20:39 -17.95577 -62.58896 14364 ft 207 kts 105°
2026-04-21 20:40 -17.95973 -62.57447 14497 ft 206 kts 105°
2026-04-21 20:40 -17.96367 -62.56004 14632 ft 205 kts 105°
2026-04-21 20:40 -17.96758 -62.54565 14768 ft 205 kts 105°
2026-04-21 20:40 -17.97148 -62.53130 14905 ft 204 kts 105°
2026-04-21 20:41 -17.97541 -62.51688 15008 ft 205 kts 105°
2026-04-21 20:41 -17.97930 -62.50262 15099 ft 206 kts 105°
2026-04-21 20:41 -17.98325 -62.48807 15177 ft 208 kts 105°
2026-04-21 20:41 -17.98724 -62.47339 15251 ft 210 kts 105°
2026-04-21 20:42 -17.99127 -62.45858 15321 ft 211 kts 105°
2026-04-21 20:42 -17.99530 -62.44372 15391 ft 212 kts 105°
2026-04-21 20:42 -17.99936 -62.42880 15464 ft 212 kts 105°
2026-04-21 20:42 -18.00343 -62.41384 15537 ft 213 kts 105°
2026-04-21 20:43 -18.00748 -62.39883 15610 ft 213 kts 105°
2026-04-21 20:43 -18.01155 -62.38385 15681 ft 213 kts 106°
2026-04-21 20:43 -18.01562 -62.36887 15752 ft 213 kts 106°
2026-04-21 20:43 -18.01963 -62.35407 15823 ft 213 kts 106°
2026-04-21 20:44 -18.02368 -62.33913 15894 ft 213 kts 105°
2026-04-21 20:44 -18.02772 -62.32419 15965 ft 213 kts 105°
2026-04-21 20:44 -18.03178 -62.30922 16042 ft 213 kts 106°
2026-04-21 20:44 -18.03583 -62.29425 16109 ft 213 kts 106°
2026-04-21 20:45 -18.03987 -62.27932 16179 ft 212 kts 105°
2026-04-21 20:45 -18.04391 -62.26439 16246 ft 212 kts 106°
2026-04-21 20:45 -18.04795 -62.24945 16324 ft 212 kts 106°
2026-04-21 20:45 -18.05201 -62.23444 16335 ft 215 kts 106°
2026-04-21 20:46 -18.05612 -62.21925 16334 ft 217 kts 105°
2026-04-21 20:46 -18.06027 -62.20392 16335 ft 218 kts 105°
2026-04-21 20:46 -18.06443 -62.18852 16337 ft 220 kts 105°
2026-04-21 20:46 -18.06861 -62.17303 16338 ft 221 kts 105°
2026-04-21 20:47 -18.07280 -62.15750 16342 ft 221 kts 105°
2026-04-21 20:47 -18.07696 -62.14209 16342 ft 221 kts 105°
2026-04-21 20:47 -18.08117 -62.12651 16344 ft 221 kts 105°
2026-04-21 20:47 -18.08537 -62.11092 16344 ft 222 kts 105°
2026-04-21 20:48 -18.08956 -62.09535 16344 ft 222 kts 105°
2026-04-21 20:48 -18.09378 -62.07971 16346 ft 222 kts 105°
2026-04-21 20:48 -18.09799 -62.06405 16346 ft 222 kts 105°
2026-04-21 20:48 -18.10218 -62.04850 16412 ft 219 kts 105°
2026-04-21 20:49 -18.10630 -62.03320 16508 ft 216 kts 105°
2026-04-21 20:49 -18.11035 -62.01814 16602 ft 213 kts 105°
2026-04-21 20:49 -18.11434 -62.00325 16697 ft 211 kts 105°
2026-04-21 20:49 -18.11833 -61.98846 16790 ft 209 kts 106°
2026-04-21 20:50 -18.12226 -61.97382 16887 ft 207 kts 105°
2026-04-21 20:50 -18.12621 -61.95913 16900 ft 210 kts 106°
2026-04-21 20:50 -18.13023 -61.94422 16899 ft 213 kts 105°
2026-04-21 20:50 -18.13428 -61.92912 16900 ft 215 kts 105°
2026-04-21 20:51 -18.13837 -61.91391 16898 ft 217 kts 105°
2026-04-21 20:51 -18.14246 -61.89863 16902 ft 217 kts 105°
2026-04-21 20:51 -18.14656 -61.88336 16903 ft 218 kts 105°
2026-04-21 20:51 -18.15069 -61.86797 16904 ft 218 kts 105°
2026-04-21 20:52 -18.15597 -61.85321 16910 ft 218 kts 114°
2026-04-21 20:52 -18.16200 -61.83858 16909 ft 218 kts 112°
2026-04-21 20:52 -18.16788 -61.82384 16912 ft 219 kts 112°
2026-04-21 20:52 -18.17383 -61.80905 16912 ft 219 kts 113°
2026-04-21 20:53 -18.17979 -61.79434 16910 ft 219 kts 112°
2026-04-21 20:53 -18.18577 -61.77955 16911 ft 219 kts 112°
2026-04-21 20:53 -18.19172 -61.76478 16913 ft 219 kts 112°
2026-04-21 20:53 -18.19769 -61.75000 16914 ft 219 kts 113°
2026-04-21 20:54 -18.20364 -61.73526 16917 ft 219 kts 113°
2026-04-21 20:54 -18.20959 -61.72051 16914 ft 219 kts 112°
2026-04-21 20:54 -18.21554 -61.70576 16916 ft 219 kts 112°
2026-04-21 20:54 -18.22151 -61.69098 16918 ft 219 kts 113°
2026-04-21 20:55 -18.22747 -61.67619 16916 ft 220 kts 113°
2026-04-21 20:55 -18.23343 -61.66139 16919 ft 219 kts 113°
2026-04-21 20:55 -18.23938 -61.64663 16920 ft 220 kts 113°
2026-04-21 20:55 -18.24533 -61.63187 16918 ft 220 kts 112°
2026-04-21 20:56 -18.25131 -61.61702 16920 ft 220 kts 113°
2026-04-21 20:56 -18.25727 -61.60222 16918 ft 220 kts 113°
2026-04-21 20:56 -18.26324 -61.58739 16920 ft 220 kts 113°
2026-04-21 20:56 -18.26920 -61.57257 16917 ft 220 kts 113°
2026-04-21 20:57 -18.27517 -61.55773 16915 ft 220 kts 112°
2026-04-21 20:57 -18.28113 -61.54292 16917 ft 220 kts 113°
2026-04-21 20:57 -18.28711 -61.52805 16915 ft 220 kts 112°
2026-04-21 20:57 -18.29298 -61.51345 16915 ft 220 kts 113°
2026-04-21 20:58 -18.29894 -61.49861 16918 ft 220 kts 112°
2026-04-21 20:58 -18.30490 -61.48377 16917 ft 220 kts 112°
2026-04-21 20:58 -18.31085 -61.46897 16917 ft 220 kts 112°
2026-04-21 20:58 -18.31681 -61.45412 16919 ft 220 kts 112°
2026-04-21 20:59 -18.32278 -61.43926 16914 ft 220 kts 113°
2026-04-21 20:59 -18.32874 -61.42444 16914 ft 220 kts 112°
2026-04-21 20:59 -18.33468 -61.40961 16916 ft 220 kts 113°
2026-04-21 20:59 -18.34063 -61.39478 16912 ft 220 kts 112°
2026-04-21 21:00 -18.34730 -61.38053 16918 ft 219 kts 127°
2026-04-21 21:00 -18.35879 -61.37027 16923 ft 219 kts 155°
2026-04-21 21:00 -18.37339 -61.36595 16918 ft 218 kts 170°
2026-04-21 21:00 -18.38835 -61.36292 16918 ft 219 kts 169°
2026-04-21 21:01 -18.40329 -61.35952 16916 ft 220 kts 168°
2026-04-21 21:01 -18.41816 -61.35600 16918 ft 220 kts 168°
2026-04-21 21:01 -18.43309 -61.35249 16916 ft 219 kts 168°
2026-04-21 21:01 -18.44798 -61.34899 16920 ft 219 kts 168°
2026-04-21 21:02 -18.46290 -61.34550 16917 ft 219 kts 168°
2026-04-21 21:02 -18.47781 -61.34201 16919 ft 219 kts 168°
2026-04-21 21:02 -18.49272 -61.33851 16919 ft 220 kts 169°
2026-04-21 21:02 -18.50763 -61.33502 16914 ft 220 kts 169°
2026-04-21 21:03 -18.52263 -61.33152 16918 ft 220 kts 168°
2026-04-21 21:03 -18.53740 -61.32803 16918 ft 220 kts 168°
2026-04-21 21:03 -18.55234 -61.32453 16919 ft 220 kts 168°
2026-04-21 21:03 -18.56728 -61.32103 16917 ft 220 kts 168°
2026-04-21 21:04 -18.58222 -61.31752 16914 ft 220 kts 168°
2026-04-21 21:04 -18.59718 -61.31401 16913 ft 220 kts 168°
2026-04-21 21:04 -18.61210 -61.31051 16916 ft 220 kts 168°
2026-04-21 21:04 -18.62700 -61.30701 16918 ft 220 kts 168°
2026-04-21 21:05 -18.64192 -61.30351 16919 ft 219 kts 168°
2026-04-21 21:05 -18.65686 -61.30000 16918 ft 220 kts 168°
2026-04-21 21:05 -18.67181 -61.29649 16917 ft 220 kts 168°
2026-04-21 21:05 -18.68678 -61.29296 16919 ft 221 kts 168°
2026-04-21 21:06 -18.70176 -61.28945 16916 ft 220 kts 168°
2026-04-21 21:06 -18.71677 -61.28592 16917 ft 221 kts 168°
2026-04-21 21:06 -18.73156 -61.28244 16918 ft 221 kts 168°
2026-04-21 21:06 -18.74676 -61.27886 16918 ft 220 kts 168°
2026-04-21 21:07 -18.76151 -61.27541 16917 ft 220 kts 168°
2026-04-21 21:07 -18.77645 -61.27188 16916 ft 220 kts 168°
2026-04-21 21:07 -18.79137 -61.26837 16917 ft 219 kts 168°
2026-04-21 21:07 -18.80631 -61.26487 16921 ft 219 kts 168°
2026-04-21 21:08 -18.82115 -61.26136 16916 ft 219 kts 169°
2026-04-21 21:08 -18.83607 -61.25786 16917 ft 219 kts 168°
2026-04-21 21:08 -18.85098 -61.25434 16919 ft 219 kts 168°
2026-04-21 21:08 -18.86589 -61.25083 16919 ft 219 kts 168°
2026-04-21 21:09 -18.88079 -61.24733 16919 ft 219 kts 168°
2026-04-21 21:09 -18.89566 -61.24382 16915 ft 219 kts 169°
2026-04-21 21:09 -18.91055 -61.24032 16918 ft 219 kts 169°
2026-04-21 21:09 -18.92546 -61.23680 16914 ft 219 kts 169°
2026-04-21 21:10 -18.94037 -61.23329 16918 ft 220 kts 168°
2026-04-21 21:10 -18.95529 -61.22977 16915 ft 220 kts 168°
2026-04-21 21:10 -18.97020 -61.22625 16916 ft 220 kts 169°
2026-04-21 21:10 -18.98494 -61.22278 16914 ft 220 kts 169°
2026-04-21 21:11 -19.00007 -61.21921 16918 ft 220 kts 169°
2026-04-21 21:11 -19.01480 -61.21574 16918 ft 220 kts 168°
2026-04-21 21:11 -19.02993 -61.21216 16921 ft 220 kts 169°
2026-04-21 21:11 -19.04464 -61.20870 16921 ft 220 kts 168°
2026-04-21 21:12 -19.05960 -61.20517 16919 ft 219 kts 168°
2026-04-21 21:12 -19.07450 -61.20164 16917 ft 219 kts 169°
2026-04-21 21:12 -19.08941 -61.19812 16919 ft 219 kts 169°
2026-04-21 21:12 -19.10430 -61.19461 16920 ft 219 kts 168°
2026-04-21 21:13 -19.11922 -61.19109 16923 ft 219 kts 168°
2026-04-21 21:13 -19.13408 -61.18758 16922 ft 219 kts 169°
2026-04-21 21:13 -19.14900 -61.18405 16922 ft 219 kts 168°
2026-04-21 21:13 -19.16387 -61.18052 16922 ft 219 kts 169°
2026-04-21 21:14 -19.17881 -61.17701 16919 ft 220 kts 169°
2026-04-21 21:14 -19.19357 -61.17351 16919 ft 220 kts 169°
2026-04-21 21:14 -19.20843 -61.17000 16918 ft 219 kts 169°
2026-04-21 21:14 -19.22334 -61.16647 16914 ft 219 kts 169°
2026-04-21 21:15 -19.23831 -61.16293 16918 ft 220 kts 168°
2026-04-21 21:15 -19.25323 -61.15940 16916 ft 219 kts 168°
2026-04-21 21:15 -19.26816 -61.15586 16916 ft 219 kts 168°
2026-04-21 21:15 -19.28299 -61.15236 16918 ft 219 kts 168°
2026-04-21 21:16 -19.29790 -61.14883 16917 ft 219 kts 168°
2026-04-21 21:16 -19.31275 -61.14531 16920 ft 219 kts 168°
2026-04-21 21:16 -19.32765 -61.14179 16920 ft 219 kts 169°
2026-04-21 21:16 -19.34252 -61.13826 16919 ft 219 kts 169°
2026-04-21 21:17 -19.35739 -61.13473 16918 ft 219 kts 169°
2026-04-21 21:17 -19.36728 -61.13239 16920 ft 219 kts 169°
2026-04-21 21:17 -19.38719 -61.12768 16919 ft 219 kts 169°
2026-04-21 21:17 -19.39703 -61.12535 16919 ft 219 kts 169°
2026-04-21 21:18 -19.41192 -61.12181 16916 ft 219 kts 169°
2026-04-21 21:18 -19.42680 -61.11828 16917 ft 219 kts 169°
2026-04-21 21:18 -19.44168 -61.11476 16916 ft 219 kts 169°
2026-04-21 21:18 -19.45657 -61.11122 16916 ft 219 kts 169°
2026-04-21 21:19 -19.47148 -61.10769 16918 ft 219 kts 169°
2026-04-21 21:19 -19.48638 -61.10415 16918 ft 219 kts 169°
2026-04-21 21:19 -19.50111 -61.10066 16915 ft 219 kts 169°
2026-04-21 21:19 -19.51599 -61.09713 16915 ft 220 kts 169°
2026-04-21 21:20 -19.53086 -61.09359 16914 ft 219 kts 169°
2026-04-21 21:20 -19.54575 -61.08998 16916 ft 219 kts 168°
2026-04-21 21:20 -19.56062 -61.08627 16917 ft 220 kts 168°
2026-04-21 21:20 -19.57553 -61.08258 16916 ft 219 kts 168°
2026-04-21 21:21 -19.59036 -61.07892 16919 ft 219 kts 169°
2026-04-21 21:21 -19.60532 -61.07523 16918 ft 220 kts 169°
2026-04-21 21:21 -19.62020 -61.07156 16918 ft 220 kts 169°
2026-04-21 21:21 -19.63507 -61.06789 16918 ft 220 kts 169°
2026-04-21 21:22 -19.64997 -61.06421 16916 ft 220 kts 169°
2026-04-21 21:22 -19.66489 -61.06052 16916 ft 220 kts 169°
2026-04-21 21:22 -19.67980 -61.05684 16916 ft 220 kts 169°
2026-04-21 21:22 -19.69467 -61.05316 16916 ft 220 kts 168°
2026-04-21 21:23 -19.70957 -61.04948 16918 ft 220 kts 168°
2026-04-21 21:23 -19.72445 -61.04581 16918 ft 220 kts 169°
2026-04-21 21:23 -19.73915 -61.04217 16916 ft 220 kts 169°
2026-04-21 21:23 -19.75403 -61.03849 16915 ft 220 kts 169°
2026-04-21 21:24 -19.76898 -61.03480 16915 ft 220 kts 169°
2026-04-21 21:24 -19.78393 -61.03109 16915 ft 221 kts 168°
2026-04-21 21:24 -19.79888 -61.02739 16916 ft 220 kts 168°
2026-04-21 21:24 -19.81384 -61.02371 16915 ft 220 kts 168°
2026-04-21 21:25 -19.82879 -61.02000 16915 ft 220 kts 168°
2026-04-21 21:25 -19.84370 -61.01630 16915 ft 220 kts 168°
2026-04-21 21:25 -19.85863 -61.01259 16915 ft 220 kts 169°
2026-04-21 21:25 -19.87357 -61.00892 16915 ft 220 kts 169°
2026-04-21 21:26 -19.88852 -61.00522 16918 ft 220 kts 169°
2026-04-21 21:26 -19.90346 -61.00151 16918 ft 221 kts 169°
2026-04-21 21:26 -19.91843 -60.99779 16918 ft 221 kts 168°
2026-04-21 21:26 -19.93334 -60.99410 16918 ft 220 kts 168°
2026-04-21 21:27 -19.94826 -60.99040 16918 ft 220 kts 169°
2026-04-21 21:27 -19.96302 -60.98674 16918 ft 220 kts 168°
2026-04-21 21:27 -19.97791 -60.98305 16915 ft 220 kts 168°
2026-04-21 21:27 -19.99279 -60.97936 16915 ft 220 kts 168°
2026-04-21 21:28 -20.00772 -60.97565 16915 ft 220 kts 168°
2026-04-21 21:28 -20.02260 -60.97197 16915 ft 220 kts 168°
2026-04-21 21:28 -20.05237 -60.96457 16914 ft 220 kts 168°
2026-04-21 21:29 -20.06725 -60.96088 16914 ft 219 kts 168°
2026-04-21 21:29 -20.08215 -60.95718 16914 ft 219 kts 168°
2026-04-21 21:29 -20.09703 -60.95349 16914 ft 219 kts 169°
2026-04-21 21:29 -20.11191 -60.94978 16916 ft 220 kts 169°
2026-04-21 21:30 -20.12682 -60.94608 16917 ft 220 kts 168°
2026-04-21 21:30 -20.14153 -60.94243 16917 ft 220 kts 169°
2026-04-21 21:30 -20.15661 -60.93867 16916 ft 220 kts 169°
2026-04-21 21:30 -20.17156 -60.93496 16917 ft 220 kts 169°
2026-04-21 21:31 -20.18643 -60.93126 16916 ft 220 kts 169°
2026-04-21 21:31 -20.20116 -60.92760 16916 ft 220 kts 169°
2026-04-21 21:31 -20.21605 -60.92389 16919 ft 220 kts 169°
2026-04-21 21:31 -20.23094 -60.92019 16919 ft 220 kts 169°
2026-04-21 21:32 -20.24584 -60.91648 16920 ft 220 kts 169°
2026-04-21 21:32 -20.26079 -60.91277 16920 ft 220 kts 169°
2026-04-21 21:32 -20.27567 -60.90905 16920 ft 220 kts 169°
2026-04-21 21:32 -20.29054 -60.90536 16920 ft 220 kts 169°
2026-04-21 21:33 -20.30544 -60.90164 16918 ft 220 kts 169°
2026-04-21 21:33 -20.32034 -60.89793 16918 ft 220 kts 169°
2026-04-21 21:33 -20.33525 -60.89422 16920 ft 220 kts 169°
2026-04-21 21:33 -20.35014 -60.89051 16920 ft 220 kts 169°
2026-04-21 21:34 -20.36487 -60.88684 16920 ft 220 kts 169°
2026-04-21 21:34 -20.37994 -60.88308 16920 ft 220 kts 169°
2026-04-21 21:34 -20.39463 -60.87942 16919 ft 220 kts 169°
2026-04-21 21:34 -20.40971 -60.87565 16919 ft 220 kts 169°
2026-04-21 21:35 -20.42442 -60.87199 16919 ft 220 kts 169°
2026-04-21 21:35 -20.43932 -60.86827 16919 ft 220 kts 169°
2026-04-21 21:35 -20.45418 -60.86456 16922 ft 219 kts 169°
2026-04-21 21:35 -20.46906 -60.86085 16922 ft 219 kts 169°
2026-04-21 21:36 -20.48393 -60.85713 16920 ft 219 kts 169°
2026-04-21 21:36 -20.49875 -60.85343 16919 ft 219 kts 169°
2026-04-21 21:36 -20.51355 -60.84974 16919 ft 219 kts 169°
2026-04-21 21:36 -20.52838 -60.84603 16919 ft 219 kts 169°
2026-04-21 21:37 -20.54318 -60.84233 16919 ft 219 kts 169°
2026-04-21 21:37 -20.55799 -60.83863 16919 ft 219 kts 169°
2026-04-21 21:37 -20.57285 -60.83492 16918 ft 219 kts 169°
2026-04-21 21:37 -20.58764 -60.83122 16918 ft 219 kts 169°
2026-04-21 21:38 -20.60247 -60.82752 16921 ft 219 kts 169°
2026-04-21 21:38 -20.61713 -60.82384 16921 ft 219 kts 169°
2026-04-21 21:38 -20.63193 -60.82015 16921 ft 219 kts 169°
2026-04-21 21:38 -20.64679 -60.81643 16920 ft 219 kts 169°
2026-04-21 21:39 -20.66163 -60.81272 16921 ft 219 kts 169°
2026-04-21 21:39 -20.67645 -60.80900 16921 ft 219 kts 169°
2026-04-21 21:39 -20.69128 -60.80529 16921 ft 219 kts 169°
2026-04-21 21:39 -20.70611 -60.80158 16921 ft 219 kts 169°
2026-04-21 21:40 -20.72094 -60.79786 16922 ft 219 kts 169°
2026-04-21 21:40 -20.73573 -60.79416 16922 ft 219 kts 169°
2026-04-21 21:40 -20.75036 -60.79049 16922 ft 218 kts 169°
2026-04-21 21:40 -20.76515 -60.78679 16922 ft 218 kts 169°
2026-04-21 21:41 -20.77991 -60.78309 16924 ft 218 kts 169°
2026-04-21 21:41 -20.79471 -60.77938 16924 ft 218 kts 169°
2026-04-21 21:41 -20.80955 -60.77566 16924 ft 218 kts 169°
2026-04-21 21:41 -20.82432 -60.77195 16923 ft 218 kts 169°
2026-04-21 21:42 -20.83910 -60.76824 16923 ft 218 kts 169°
2026-04-21 21:42 -20.85385 -60.76454 16925 ft 218 kts 169°
2026-04-21 21:42 -20.86866 -60.76083 16924 ft 218 kts 169°
2026-04-21 21:42 -20.88345 -60.75712 16924 ft 218 kts 169°
2026-04-21 21:43 -20.89821 -60.75341 16925 ft 218 kts 169°
2026-04-21 21:43 -20.91296 -60.74970 16925 ft 218 kts 169°
2026-04-21 21:43 -20.92773 -60.74600 16924 ft 219 kts 169°
2026-04-21 21:43 -20.94258 -60.74227 16923 ft 219 kts 169°
2026-04-21 21:44 -20.95724 -60.73858 16926 ft 219 kts 169°
2026-04-21 21:44 -20.97206 -60.73486 16925 ft 219 kts 169°
2026-04-21 21:44 -20.98692 -60.73112 16925 ft 219 kts 169°
2026-04-21 21:44 -21.00179 -60.72738 16932 ft 219 kts 169°
2026-04-21 21:45 -21.01668 -60.72364 16929 ft 219 kts 169°
2026-04-21 21:45 -21.03155 -60.71990 16929 ft 219 kts 169°
2026-04-21 21:45 -21.04643 -60.71616 16929 ft 219 kts 169°
2026-04-21 21:45 -21.06124 -60.71243 16929 ft 219 kts 169°
2026-04-21 21:46 -21.07615 -60.70853 16927 ft 220 kts 165°
2026-04-21 21:46 -21.08944 -60.70082 16926 ft 222 kts 146°
2026-04-21 21:46 -21.10168 -60.69068 16928 ft 223 kts 144°
2026-04-21 21:46 -21.11402 -60.68064 16931 ft 222 kts 146°
2026-04-21 21:47 -21.12652 -60.67085 16932 ft 222 kts 146°
2026-04-21 21:47 -21.13903 -60.66109 16933 ft 222 kts 146°
2026-04-21 21:47 -21.15151 -60.65128 16933 ft 223 kts 146°
2026-04-21 21:47 -21.16399 -60.64147 16933 ft 223 kts 146°
2026-04-21 21:48 -21.17650 -60.63164 16932 ft 223 kts 146°
2026-04-21 21:48 -21.18899 -60.62182 16932 ft 223 kts 146°
2026-04-21 21:48 -21.20151 -60.61197 16932 ft 223 kts 146°
2026-04-21 21:48 -21.21403 -60.60212 16932 ft 223 kts 146°
2026-04-21 21:49 -21.22652 -60.59230 16932 ft 223 kts 146°
2026-04-21 21:49 -21.23903 -60.58245 16932 ft 223 kts 146°
2026-04-21 21:49 -21.25154 -60.57261 16931 ft 223 kts 146°
2026-04-21 21:49 -21.26406 -60.56275 16937 ft 223 kts 146°
2026-04-21 21:50 -21.27652 -60.55294 16940 ft 223 kts 146°
2026-04-21 21:50 -21.28902 -60.54309 16939 ft 223 kts 146°
2026-04-21 21:50 -21.30134 -60.53339 16939 ft 222 kts 146°
2026-04-21 21:50 -21.31382 -60.52356 16942 ft 222 kts 146°
2026-04-21 21:51 -21.32625 -60.51376 16938 ft 222 kts 146°
2026-04-21 21:51 -21.33873 -60.50393 16938 ft 222 kts 146°
2026-04-21 21:51 -21.35124 -60.49406 16938 ft 222 kts 146°
2026-04-21 21:51 -21.36371 -60.48423 16937 ft 222 kts 146°
2026-04-21 21:52 -21.37620 -60.47438 16940 ft 222 kts 146°
2026-04-21 21:52 -21.38864 -60.46456 16940 ft 222 kts 146°
2026-04-21 21:52 -21.40114 -60.45470 16936 ft 222 kts 146°
2026-04-21 21:52 -21.41361 -60.44485 16936 ft 222 kts 146°
2026-04-21 21:53 -21.42609 -60.43500 16935 ft 222 kts 146°
2026-04-21 21:53 -21.43853 -60.42519 16935 ft 222 kts 146°
2026-04-21 21:53 -21.45100 -60.41533 16935 ft 222 kts 146°
2026-04-21 21:53 -21.46348 -60.40547 16935 ft 222 kts 146°
2026-04-21 21:54 -21.47595 -60.39562 16933 ft 223 kts 146°
2026-04-21 21:54 -21.48825 -60.38590 16933 ft 223 kts 146°
2026-04-21 21:54 -21.50073 -60.37604 16932 ft 223 kts 146°
2026-04-21 21:54 -21.51321 -60.36616 16940 ft 223 kts 146°
2026-04-21 21:55 -21.52573 -60.35627 16942 ft 223 kts 146°
2026-04-21 21:55 -21.53824 -60.34637 16942 ft 223 kts 146°
2026-04-21 21:55 -21.55076 -60.33647 16942 ft 224 kts 146°
2026-04-21 21:55 -21.56326 -60.32658 16941 ft 224 kts 146°
2026-04-21 21:56 -21.57582 -60.31663 16938 ft 224 kts 146°
2026-04-21 21:56 -21.58833 -60.30672 16937 ft 224 kts 146°
2026-04-21 21:56 -21.60090 -60.29678 16937 ft 224 kts 146°
2026-04-21 21:56 -21.61341 -60.28686 16937 ft 223 kts 146°
2026-04-21 21:57 -21.62592 -60.27696 16939 ft 223 kts 146°
2026-04-21 21:57 -21.63844 -60.26703 16939 ft 223 kts 146°
2026-04-21 21:57 -21.65093 -60.25714 16939 ft 223 kts 146°
2026-04-21 21:57 -21.66348 -60.24718 16939 ft 224 kts 146°
2026-04-21 21:58 -21.67585 -60.23738 16936 ft 224 kts 146°
2026-04-21 21:58 -21.68850 -60.22735 16936 ft 224 kts 146°
2026-04-21 21:58 -21.70088 -60.21753 16936 ft 224 kts 146°
2026-04-21 21:58 -21.71340 -60.20759 16939 ft 224 kts 146°
2026-04-21 21:59 -21.72595 -60.19763 16941 ft 224 kts 146°
2026-04-21 21:59 -21.73852 -60.18766 16941 ft 224 kts 146°
2026-04-21 21:59 -21.75103 -60.17772 16941 ft 224 kts 146°
2026-04-21 21:59 -21.76359 -60.16775 16941 ft 224 kts 146°
2026-04-21 22:00 -21.77612 -60.15779 16945 ft 223 kts 146°
2026-04-21 22:00 -21.78862 -60.14787 16944 ft 224 kts 146°
2026-04-21 22:00 -21.80114 -60.13791 16944 ft 224 kts 146°
2026-04-21 22:00 -21.81351 -60.12809 16944 ft 224 kts 146°
2026-04-21 22:01 -21.82601 -60.11814 16944 ft 224 kts 146°
2026-04-21 22:01 -21.83870 -60.10805 16944 ft 224 kts 146°
2026-04-21 22:01 -21.85105 -60.09823 16944 ft 224 kts 146°
2026-04-21 22:01 -21.86359 -60.08826 16944 ft 224 kts 146°
2026-04-21 22:02 -21.87611 -60.07829 16944 ft 224 kts 146°
2026-04-21 22:02 -21.88864 -60.06831 16944 ft 224 kts 146°
2026-04-21 22:02 -21.90114 -60.05837 16943 ft 224 kts 146°
2026-04-21 22:02 -21.91367 -60.04838 16943 ft 224 kts 146°
2026-04-21 22:03 -21.92623 -60.03839 16946 ft 224 kts 146°
2026-04-21 22:03 -21.93872 -60.02844 16945 ft 224 kts 146°
2026-04-21 22:03 -21.95125 -60.01846 16945 ft 224 kts 146°
2026-04-21 22:03 -21.96374 -60.00850 16945 ft 224 kts 146°
2026-04-21 22:04 -21.97627 -59.99851 16945 ft 224 kts 146°
2026-04-21 22:04 -21.98879 -59.98853 16945 ft 224 kts 146°
2026-04-21 22:04 -22.00129 -59.97855 16945 ft 224 kts 146°
2026-04-21 22:04 -22.01382 -59.96858 16949 ft 224 kts 146°
2026-04-21 22:05 -22.02634 -59.95857 16949 ft 224 kts 146°
2026-04-21 22:05 -22.03887 -59.94858 16949 ft 224 kts 146°
2026-04-21 22:05 -22.05122 -59.93872 16949 ft 224 kts 146°
2026-04-21 22:05 -22.06371 -59.92874 16949 ft 224 kts 146°
2026-04-21 22:06 -22.07622 -59.91876 16948 ft 224 kts 146°
2026-04-21 22:06 -22.08874 -59.90875 16948 ft 224 kts 146°
2026-04-21 22:06 -22.10124 -59.89877 16948 ft 224 kts 146°
2026-04-21 22:06 -22.11376 -59.88877 16948 ft 224 kts 146°
2026-04-21 22:07 -22.12628 -59.87875 16945 ft 224 kts 146°
2026-04-21 22:07 -22.13868 -59.86884 16945 ft 224 kts 146°
2026-04-21 22:07 -22.15122 -59.85881 16945 ft 224 kts 146°
2026-04-21 22:07 -22.16376 -59.84879 16945 ft 224 kts 146°
2026-04-21 22:08 -22.17628 -59.83876 16944 ft 224 kts 146°
2026-04-21 22:08 -22.18882 -59.82874 16944 ft 224 kts 146°
2026-04-21 22:08 -22.19730 -59.82195 16950 ft 224 kts 146°
2026-04-21 22:08 -22.20966 -59.81205 16949 ft 224 kts 146°
2026-04-21 22:09 -22.22221 -59.80200 16946 ft 224 kts 146°
2026-04-21 22:09 -22.23474 -59.79196 16946 ft 224 kts 146°
2026-04-21 22:09 -22.24728 -59.78192 16946 ft 224 kts 146°
2026-04-21 22:09 -22.25984 -59.77186 16946 ft 225 kts 146°
2026-04-21 22:10 -22.27236 -59.76182 16949 ft 224 kts 146°
2026-04-21 22:10 -22.28493 -59.75174 16948 ft 224 kts 146°
2026-04-21 22:10 -22.29748 -59.74169 16948 ft 224 kts 146°
2026-04-21 22:10 -22.31001 -59.73163 16948 ft 224 kts 146°
2026-04-21 22:11 -22.32257 -59.72156 16948 ft 224 kts 146°
2026-04-21 22:11 -22.33511 -59.71150 16948 ft 224 kts 146°
2026-04-21 22:11 -22.34765 -59.70143 16949 ft 224 kts 146°
2026-04-21 22:11 -22.36005 -59.69149 16949 ft 224 kts 146°
2026-04-21 22:12 -22.37257 -59.68143 16949 ft 224 kts 146°
2026-04-21 22:12 -22.38510 -59.67137 16949 ft 224 kts 146°
2026-04-21 22:12 -22.39763 -59.66134 16949 ft 224 kts 146°
2026-04-21 22:12 -22.41022 -59.65123 16948 ft 225 kts 146°
2026-04-21 22:13 -22.42275 -59.64119 16948 ft 225 kts 146°
2026-04-21 22:13 -22.43530 -59.63111 16948 ft 225 kts 146°
2026-04-21 22:13 -22.44784 -59.62104 16948 ft 225 kts 146°
2026-04-21 22:13 -22.46037 -59.61099 16948 ft 225 kts 146°
2026-04-21 22:14 -22.47293 -59.60090 16944 ft 225 kts 146°
2026-04-21 22:14 -22.48547 -59.59083 16950 ft 224 kts 146°
2026-04-21 22:14 -22.49806 -59.58071 16953 ft 225 kts 146°
2026-04-21 22:14 -22.51060 -59.57063 16953 ft 225 kts 146°
2026-04-21 22:15 -22.52313 -59.56057 16953 ft 225 kts 146°
2026-04-21 22:15 -22.53569 -59.55046 16953 ft 225 kts 146°
2026-04-21 22:15 -22.54808 -59.54051 16952 ft 225 kts 146°
2026-04-21 22:15 -22.56062 -59.53041 16952 ft 225 kts 146°
2026-04-21 22:16 -22.57320 -59.52029 16955 ft 225 kts 145°
2026-04-21 22:16 -22.58574 -59.51020 16955 ft 225 kts 146°
2026-04-21 22:16 -22.59827 -59.50011 16954 ft 225 kts 145°
2026-04-21 22:16 -22.61081 -59.49002 16954 ft 225 kts 146°
2026-04-21 22:17 -22.62336 -59.47991 16957 ft 225 kts 145°
2026-04-21 22:17 -22.63586 -59.46984 16957 ft 225 kts 145°
2026-04-21 22:17 -22.64840 -59.45974 16956 ft 224 kts 146°
2026-04-21 22:17 -22.66093 -59.44964 16956 ft 225 kts 145°
2026-04-21 22:18 -22.67351 -59.43950 16954 ft 225 kts 146°
2026-04-21 22:18 -22.68603 -59.42941 16953 ft 225 kts 145°
2026-04-21 22:18 -22.69844 -59.41940 16953 ft 225 kts 145°
2026-04-21 22:18 -22.71099 -59.40928 16953 ft 225 kts 145°
2026-04-21 22:19 -22.72358 -59.39912 16955 ft 225 kts 146°
2026-04-21 22:19 -22.73615 -59.38898 16960 ft 225 kts 145°
2026-04-21 22:19 -22.74868 -59.37886 16960 ft 225 kts 146°
2026-04-21 22:19 -22.76121 -59.36874 16960 ft 225 kts 145°
2026-04-21 22:20 -22.77374 -59.35863 16963 ft 225 kts 145°
2026-04-21 22:20 -22.78627 -59.34850 16962 ft 225 kts 145°
2026-04-21 22:20 -22.79882 -59.33837 16962 ft 225 kts 145°
2026-04-21 22:20 -22.81133 -59.32826 16962 ft 224 kts 145°
2026-04-21 22:21 -22.82370 -59.31826 16962 ft 224 kts 145°
2026-04-21 22:21 -22.83623 -59.30813 16959 ft 225 kts 145°
2026-04-21 22:21 -22.84877 -59.29799 16959 ft 225 kts 145°
2026-04-21 22:21 -22.86133 -59.28782 16959 ft 225 kts 145°
2026-04-21 22:22 -22.87386 -59.27769 16961 ft 225 kts 145°
2026-04-21 22:22 -22.88641 -59.26753 16961 ft 225 kts 145°
2026-04-21 22:22 -22.89897 -59.25737 16958 ft 225 kts 145°
2026-04-21 22:22 -22.91155 -59.24718 16958 ft 225 kts 145°
2026-04-21 22:23 -22.92413 -59.23699 16960 ft 225 kts 145°
2026-04-21 22:23 -22.93666 -59.22684 16960 ft 225 kts 145°
2026-04-21 22:23 -22.94920 -59.21668 16960 ft 225 kts 145°
2026-04-21 22:23 -22.96176 -59.20650 16960 ft 225 kts 145°
2026-04-21 22:24 -22.97414 -59.19647 16965 ft 225 kts 145°
2026-04-21 22:24 -22.98668 -59.18630 16965 ft 225 kts 145°
2026-04-21 22:24 -22.99921 -59.17614 16964 ft 225 kts 145°
2026-04-21 22:24 -23.01175 -59.16596 16964 ft 225 kts 145°
2026-04-21 22:25 -23.02430 -59.15579 16967 ft 225 kts 145°
2026-04-21 22:25 -23.03683 -59.14561 16961 ft 225 kts 145°
2026-04-21 22:25 -23.04940 -59.13541 16961 ft 225 kts 145°
2026-04-21 22:25 -23.06196 -59.12521 16966 ft 225 kts 145°
2026-04-21 22:26 -23.07455 -59.11499 16963 ft 225 kts 145°
2026-04-21 22:26 -23.08708 -59.10481 16963 ft 225 kts 145°
2026-04-21 22:26 -23.09961 -59.09463 16963 ft 225 kts 145°
2026-04-21 22:26 -23.11213 -59.08445 16963 ft 225 kts 145°
2026-04-21 22:27 -23.12466 -59.07426 16963 ft 225 kts 145°
2026-04-21 22:27 -23.13719 -59.06408 16961 ft 225 kts 145°
2026-04-21 22:27 -23.14974 -59.05388 16962 ft 225 kts 145°
2026-04-21 22:27 -23.16225 -59.04369 16963 ft 225 kts 145°
2026-04-21 22:28 -23.17480 -59.03349 16970 ft 225 kts 145°
2026-04-21 22:28 -23.18715 -59.02343 16966 ft 225 kts 145°
2026-04-21 22:28 -23.19981 -59.01311 16966 ft 225 kts 145°
2026-04-21 22:28 -23.21236 -59.00291 16972 ft 225 kts 145°
2026-04-21 22:29 -23.22471 -58.99284 16969 ft 225 kts 145°
2026-04-21 22:29 -23.23729 -58.98263 16969 ft 225 kts 146°
2026-04-21 22:29 -23.25000 -58.97272 16972 ft 225 kts 147°
2026-04-21 22:29 -23.26281 -58.96285 16972 ft 225 kts 147°
2026-04-21 22:30 -23.27513 -58.95233 16970 ft 226 kts 142°
2026-04-21 22:30 -23.28735 -58.94167 16971 ft 225 kts 145°
2026-04-21 22:30 -23.29993 -58.93142 16972 ft 225 kts 146°
2026-04-21 22:30 -23.31250 -58.92126 16971 ft 225 kts 146°
2026-04-21 22:31 -23.32505 -58.91104 16973 ft 225 kts 145°
2026-04-21 22:31 -23.33741 -58.90095 16973 ft 225 kts 145°
2026-04-21 22:31 -23.34995 -58.89070 16973 ft 225 kts 145°
2026-04-21 22:31 -23.36250 -58.88046 16973 ft 225 kts 145°
2026-04-21 22:32 -23.37503 -58.87021 16976 ft 225 kts 145°
2026-04-21 22:32 -23.38759 -58.85995 16975 ft 225 kts 145°
2026-04-21 22:32 -23.40010 -58.84973 16975 ft 225 kts 145°
2026-04-21 22:32 -23.41265 -58.83947 16975 ft 225 kts 145°
2026-04-21 22:33 -23.42518 -58.82923 16972 ft 225 kts 145°
2026-04-21 22:33 -23.43772 -58.81896 16978 ft 225 kts 146°
2026-04-21 22:33 -23.45027 -58.80871 16978 ft 225 kts 146°
2026-04-21 22:33 -23.46277 -58.79848 16977 ft 225 kts 146°
2026-04-21 22:34 -23.47534 -58.78820 16977 ft 225 kts 146°
2026-04-21 22:34 -23.48784 -58.77795 16977 ft 225 kts 146°
2026-04-21 22:34 -23.50038 -58.76769 16977 ft 225 kts 146°
2026-04-21 22:34 -23.51289 -58.75744 16977 ft 225 kts 146°
2026-04-21 22:35 -23.52542 -58.74718 16979 ft 225 kts 145°
2026-04-21 22:35 -23.53795 -58.73691 16978 ft 225 kts 146°
2026-04-21 22:35 -23.55044 -58.72667 16979 ft 225 kts 145°
2026-04-21 22:35 -23.56297 -58.71640 16978 ft 225 kts 145°
2026-04-21 22:36 -23.58801 -58.69587 16978 ft 225 kts 145°
2026-04-21 22:36 -23.60037 -58.68572 16978 ft 225 kts 146°
2026-04-21 22:36 -23.61288 -58.67545 16978 ft 225 kts 145°
2026-04-21 22:37 -23.62543 -58.66516 16980 ft 225 kts 145°
2026-04-21 22:37 -23.63794 -58.65489 16980 ft 225 kts 145°
2026-04-21 22:37 -23.65050 -58.64457 16979 ft 225 kts 145°
2026-04-21 22:37 -23.66263 -58.63461 16980 ft 225 kts 146°
2026-04-21 22:38 -23.67513 -58.62433 16983 ft 225 kts 146°
2026-04-21 22:38 -23.68766 -58.61404 16984 ft 225 kts 146°
2026-04-21 22:38 -23.70017 -58.60375 16983 ft 225 kts 146°
2026-04-21 22:38 -23.71270 -58.59346 16982 ft 225 kts 146°
2026-04-21 22:39 -23.72518 -58.58319 16985 ft 225 kts 146°
2026-04-21 22:39 -23.73771 -58.57289 16985 ft 225 kts 146°
2026-04-21 22:39 -23.75003 -58.56274 16985 ft 225 kts 146°
2026-04-21 22:39 -23.76252 -58.55247 16984 ft 225 kts 146°
2026-04-21 22:40 -23.77517 -58.54205 16985 ft 225 kts 146°
2026-04-21 22:40 -23.78753 -58.53187 16984 ft 225 kts 146°
2026-04-21 22:40 -23.80003 -58.52158 16984 ft 225 kts 146°
2026-04-21 22:40 -23.81252 -58.51128 16984 ft 225 kts 146°
2026-04-21 22:41 -23.82505 -58.50097 16981 ft 225 kts 146°
2026-04-21 22:41 -23.83755 -58.49065 16981 ft 225 kts 146°
2026-04-21 22:41 -23.85004 -58.48036 16980 ft 225 kts 146°
2026-04-21 22:41 -23.86254 -58.47005 16978 ft 225 kts 145°
2026-04-21 22:42 -23.87506 -58.45972 16980 ft 225 kts 146°
2026-04-21 22:42 -23.88755 -58.44942 16980 ft 225 kts 145°
2026-04-21 22:42 -23.90006 -58.43909 16985 ft 225 kts 146°
2026-04-21 22:42 -23.91256 -58.42877 16985 ft 225 kts 146°
2026-04-21 22:43 -23.92508 -58.41843 16984 ft 226 kts 146°
2026-04-21 22:43 -23.93763 -58.40808 16984 ft 226 kts 146°
2026-04-21 22:43 -23.95015 -58.39772 16984 ft 226 kts 146°
2026-04-21 22:43 -23.96271 -58.38735 16983 ft 226 kts 146°
2026-04-21 22:44 -23.97527 -58.37696 16983 ft 226 kts 146°
2026-04-21 22:44 -23.98780 -58.36661 16980 ft 226 kts 146°
2026-04-21 22:44 -24.00019 -58.35636 16983 ft 226 kts 146°
2026-04-21 22:44 -24.01275 -58.34597 16983 ft 226 kts 146°
2026-04-21 22:45 -24.02529 -58.33560 16983 ft 226 kts 146°
2026-04-21 22:45 -24.03786 -58.32519 16982 ft 226 kts 146°
2026-04-21 22:45 -24.05043 -58.31480 16983 ft 226 kts 146°
2026-04-21 22:45 -24.06300 -58.30438 16982 ft 226 kts 146°
2026-04-21 22:46 -24.07558 -58.29396 16984 ft 226 kts 146°
2026-04-21 22:46 -24.08797 -58.28370 16984 ft 226 kts 146°
2026-04-21 22:46 -24.10053 -58.27330 16984 ft 226 kts 146°
2026-04-21 22:46 -24.11309 -58.26288 16984 ft 226 kts 146°
2026-04-21 22:47 -24.12565 -58.25247 16981 ft 226 kts 146°
2026-04-21 22:47 -24.13824 -58.24205 16986 ft 227 kts 146°
2026-04-21 22:47 -24.15082 -58.23160 16986 ft 227 kts 146°
2026-04-21 22:47 -24.16344 -58.22112 16985 ft 228 kts 146°
2026-04-21 22:48 -24.17609 -58.21063 16990 ft 228 kts 146°
2026-04-21 22:48 -24.18874 -58.20013 16988 ft 228 kts 146°
2026-04-21 22:48 -24.20142 -58.18960 16988 ft 228 kts 146°
2026-04-21 22:48 -24.21405 -58.17912 16988 ft 227 kts 146°
2026-04-21 22:49 -24.22653 -58.16874 16991 ft 227 kts 146°
2026-04-21 22:49 -24.23910 -58.15830 16991 ft 227 kts 146°
2026-04-21 22:49 -24.25172 -58.14780 16991 ft 227 kts 146°
2026-04-21 22:49 -24.26433 -58.13732 16991 ft 227 kts 146°
2026-04-21 22:50 -24.27692 -58.12686 16991 ft 227 kts 146°
2026-04-21 22:50 -24.28952 -58.11638 16990 ft 227 kts 146°
2026-04-21 22:50 -24.30211 -58.10590 16990 ft 227 kts 146°
2026-04-21 22:50 -24.31469 -58.09543 16990 ft 227 kts 146°
2026-04-21 22:51 -24.32728 -58.08496 16990 ft 227 kts 146°
2026-04-21 22:51 -24.33986 -58.07448 16989 ft 227 kts 146°
2026-04-21 22:51 -24.35243 -58.06401 16970 ft 227 kts 145°
2026-04-21 22:51 -24.36499 -58.05357 16987 ft 227 kts 145°
2026-04-21 22:52 -24.37759 -58.04305 16987 ft 228 kts 145°
2026-04-21 22:52 -24.39007 -58.03264 16987 ft 228 kts 145°
2026-04-21 22:52 -24.40270 -58.02212 16987 ft 228 kts 145°
2026-04-21 22:52 -24.41535 -58.01157 16986 ft 229 kts 145°
2026-04-21 22:53 -24.42801 -58.00101 16988 ft 229 kts 145°
2026-04-21 22:53 -24.44065 -57.99046 16988 ft 229 kts 145°
2026-04-21 22:53 -24.45332 -57.97989 16988 ft 229 kts 145°
2026-04-21 22:53 -24.46603 -57.96932 16988 ft 229 kts 146°
2026-04-21 22:54 -24.47931 -57.95979 16983 ft 228 kts 151°
2026-04-21 22:54 -24.49321 -57.95036 16703 ft 240 kts 150°
2026-04-21 22:54 -24.50748 -57.94018 16416 ft 248 kts 149°
2026-04-21 22:54 -24.52203 -57.92960 16133 ft 254 kts 148°
2026-04-21 22:55 -24.53688 -57.91886 15846 ft 257 kts 148°
2026-04-21 22:55 -24.55190 -57.90805 15566 ft 259 kts 148°
2026-04-21 22:55 -24.56701 -57.89717 15288 ft 260 kts 148°
2026-04-21 22:55 -24.58221 -57.88620 15012 ft 262 kts 148°
2026-04-21 22:56 -24.59744 -57.87522 14741 ft 262 kts 148°
2026-04-21 22:56 -24.61270 -57.86421 14469 ft 263 kts 148°
2026-04-21 22:56 -24.62799 -57.85318 14200 ft 263 kts 148°
2026-04-21 22:56 -24.63818 -57.84582 14021 ft 263 kts 148°
2026-04-21 22:57 -24.65351 -57.83476 13743 ft 264 kts 148°
2026-04-21 22:57 -24.66858 -57.82387 13416 ft 254 kts 148°
2026-04-21 22:57 -24.68317 -57.81331 13061 ft 248 kts 148°
2026-04-21 22:57 -24.69743 -57.80298 12711 ft 244 kts 148°
2026-04-21 22:58 -24.71158 -57.79276 12362 ft 242 kts 148°
2026-04-21 22:58 -24.72562 -57.78261 12019 ft 241 kts 148°
2026-04-21 22:58 -24.73966 -57.77246 11679 ft 241 kts 148°
2026-04-21 22:58 -24.75364 -57.76234 11343 ft 240 kts 148°
2026-04-21 22:59 -24.76761 -57.75223 11011 ft 238 kts 148°
2026-04-21 22:59 -24.78121 -57.74238 10681 ft 231 kts 147°
2026-04-21 22:59 -24.79453 -57.73272 10354 ft 226 kts 147°
2026-04-21 22:59 -24.80739 -57.72341 10036 ft 222 kts 147°
2026-04-21 23:00 -24.82021 -57.71412 9693 ft 219 kts 148°
2026-04-21 23:00 -24.83293 -57.70489 9333 ft 218 kts 147°
2026-04-21 23:00 -24.84556 -57.69574 8984 ft 217 kts 148°
2026-04-21 23:00 -24.85817 -57.68660 8634 ft 216 kts 148°
2026-04-21 23:01 -24.87069 -57.67753 8289 ft 215 kts 147°
2026-04-21 23:01 -24.88316 -57.66847 7954 ft 214 kts 147°
2026-04-21 23:01 -24.89558 -57.65947 7618 ft 214 kts 147°
2026-04-21 23:01 -24.90797 -57.65048 7285 ft 213 kts 147°
2026-04-21 23:02 -24.92033 -57.64151 6956 ft 212 kts 147°
2026-04-21 23:02 -24.93265 -57.63256 6629 ft 212 kts 147°
2026-04-21 23:02 -24.94499 -57.62360 6290 ft 212 kts 147°
2026-04-21 23:02 -24.95714 -57.61478 5954 ft 211 kts 147°
2026-04-21 23:03 -24.96942 -57.60586 5610 ft 210 kts 147°
2026-04-21 23:03 -24.98157 -57.59703 5270 ft 209 kts 147°
2026-04-21 23:03 -24.99369 -57.58820 4934 ft 208 kts 146°
2026-04-21 23:03 -25.00391 -57.57707 4587 ft 207 kts 125°
2026-04-21 23:04 -25.01143 -57.56354 4230 ft 206 kts 121°
2026-04-21 23:04 -25.01880 -57.55013 3900 ft 203 kts 122°
2026-04-21 23:04 -25.02636 -57.53708 3561 ft 201 kts 123°
2026-04-21 23:04 -25.03379 -57.52434 3228 ft 195 kts 123°
2026-04-21 23:05 -25.04092 -57.51204 2888 ft 192 kts 123°
2026-04-21 23:05 -25.04805 -57.49974 2547 ft 190 kts 123°
2026-04-21 23:05 -25.05541 -57.48766 2204 ft 188 kts 131°
2026-04-21 23:05 -25.06608 -57.47992 1977 ft 182 kts 165°
2026-04-21 23:06 -25.07809 -57.48012 1974 ft 170 kts 192°
2026-04-21 23:06 -25.08930 -57.48260 1963 ft 159 kts 191°
2026-04-21 23:06 -25.09990 -57.48501 1960 ft 153 kts 192°
2026-04-21 23:06 -25.11021 -57.48754 1960 ft 152 kts 192°
2026-04-21 23:07 -25.12050 -57.49010 1958 ft 151 kts 193°
2026-04-21 23:07 -25.13079 -57.49258 1957 ft 151 kts 192°
2026-04-21 23:07 -25.14112 -57.49512 1877 ft 156 kts 193°
2026-04-21 23:07 -25.15174 -57.49770 1677 ft 153 kts 192°
2026-04-21 23:08 -25.16165 -57.50015 1485 ft 136 kts 192°
2026-04-21 23:08 -25.17030 -57.50217 1321 ft 117 kts 192°
2026-04-21 23:08 -25.17815 -57.50408 1175 ft 116 kts 192°
2026-04-21 23:08 -25.18585 -57.50600 1038 ft 112 kts 193°
2026-04-21 23:09 -25.19342 -57.50785 903 ft 111 kts 193°
2026-04-21 23:09 -25.20082 -57.50969 767 ft 110 kts 193°
2026-04-21 23:09 -25.20830 -57.51147 634 ft 110 kts 193°
2026-04-21 23:09 -25.21585 -57.51333 486 ft 109 kts 192°
2026-04-21 23:10 -25.22312 -57.51501 364 ft 108 kts 192°
2026-04-21 23:10 -25.23017 -57.51676 264 ft 88 kts 193°
2026-04-21 23:10 -25.23441 -57.51781 268 ft 34 kts 192°
2026-04-21 23:10 -25.23600 -57.51819 270 ft 27 kts 193°
2026-04-21 23:11 -25.23794 -57.51870 272 ft 29 kts 193°
2026-04-21 23:11 -25.23989 -57.51916 278 ft 28 kts 191°
2026-04-21 23:11 -25.24180 -57.51960 281 ft 28 kts 193°
2026-04-21 23:11 -25.24275 -57.51862 281 ft 15 kts 102°
2026-04-21 23:12 -25.24300 -57.51731 280 ft 20 kts 101°
2026-04-21 23:12 -25.24342 -57.51585 280 ft 16 kts 162°
2026-04-21 23:12 -25.24442 -57.51578 281 ft 14 kts 257°
2026-04-21 23:12 -25.24396 -57.51606 281 ft 0 kts 351°